Torna al catalogo

FENGYUN 1C DEB *

AttivoPO
NORAD 47041·DEBRIS·🇨🇳 China

Lanciato May 10, 1999 da Taiyuan Satellite Launch Center

Loading…

Prossimi Passaggi (prossime 24 ore)

TLE

In scadenzaSource: Space-Track

Epoca: Sep 8, 2026, 09:55 UTC

1 47041U 99025FBT 26251.41362044  .00080991  00000-0  26092-2 0  9999
2 47041  98.2257 307.0156 0006163 354.9479   5.1697 15.31857379752821

Traccia FENGYUN 1C DEB * in tempo reale con AllMySat

Download on the App Store